Imperial, CA

4:34 PM PDT on September 27, 2016 (GMT -0700)
Imperial County

Weather History for KIPL - November, 2012

Change the Weather History Date:

Saturday, November 3, 2012

  Actual Average Record
Temperature  
Mean Temperature 72 °F -  
Max Temperature 88 °F 84 °F 98 °F (1950)
Min Temperature 57 °F 52 °F 40 °F (1952)
Cooling Degree Days 6    
Growing Degree Days 22 (Base 50)    
Moisture  
Dew Point 40 °F    
Average Humidity 38    
Maximum Humidity 56    
Minimum Humidity 18    
Precipitation  
Precipitation 0.00 in - - ()
Sea Level Pressure  
Sea Level Pressure 29.95 in    
Wind  
Wind Speed 2 mph (West)    
Max Wind Speed 7 mph    
Max Gust Speed -    
Visibility 10 miles    
Events      
Averages and records for this station are not official NWS values.
T = Trace of Precipitation, MM = Missing Value Source: NWS Daily Summary

Daily Weather History Graph

Daily Weather History Graph

Search for Another Location

Airport or City:

Trip Planner

Search our weather history database for the weather conditions in past years. The results will help you decide how hot, cold, wet, or windy it might be!

Date:

Astronomy

Nov. 03, 2012 Rise Set
Actual Time 7:02 AM PDT 5:48 PM PDT
Civil Twilight 6:36 AM PDT 6:14 PM PDT
Nautical Twilight 6:07 AM PDT 6:43 PM PDT
Astronomical Twilight 5:38 AM PDT 7:12 PM PDT
Moon 9:38 PM PDT (11/3) 11:04 AM PDT (11/3)
Length of Visible Light 11h 37m
Length of Day
10h 46m
Waning Gibbous, 79% of the Moon is Illuminated
Nov 3
Waning Gibbous
Nov 6
Last Quarter
Nov 13
New
Nov 20
First Quarter
Nov 28
Full

Hourly Weather History & Observations

Time (PDT) Temp. Dew Point Humidity Pressure Visibility Wind Dir Wind Speed Gust Speed Precip Events Conditions
12:53 AM 59.0 °F 41.0 °F 51% 29.90 in 10.0 mi Calm Calm - N/A   Clear
1:53 AM 59.0 °F 39.0 °F 48% 29.91 in 10.0 mi SW 4.6 mph - N/A   Clear
2:53 AM 59.0 °F 37.9 °F 46% 29.91 in 10.0 mi Calm Calm - N/A   Clear
3:53 AM 57.0 °F 41.0 °F 55% 29.91 in 10.0 mi West 5.8 mph - N/A   Clear
4:53 AM 57.0 °F 41.0 °F 55% 29.91 in 10.0 mi WSW 3.5 mph - N/A   Clear
5:53 AM 57.0 °F 39.0 °F 51% 29.92 in 10.0 mi West 6.9 mph - N/A   Clear
6:53 AM 57.9 °F 37.0 °F 46% 29.95 in 10.0 mi Calm Calm - N/A   Clear
7:53 AM 59.0 °F 37.9 °F 46% 29.96 in 10.0 mi SW 4.6 mph - N/A   Clear
8:53 AM 64.9 °F 37.9 °F 37% 29.98 in 10.0 mi Calm Calm - N/A   Clear
9:53 AM 71.1 °F 39.9 °F 32% 29.99 in 10.0 mi Calm Calm - N/A   Clear
10:53 AM 77.0 °F 39.9 °F 26% 29.99 in 10.0 mi WNW 4.6 mph - N/A   Clear
11:53 AM 81.0 °F 39.0 °F 22% 29.99 in 10.0 mi Calm Calm - N/A   Clear
12:53 PM 84.0 °F 39.9 °F 21% 29.96 in 10.0 mi North 3.5 mph - N/A   Clear
1:53 PM 86.0 °F 37.0 °F 18% 29.94 in 10.0 mi Calm Calm - N/A   Clear
2:53 PM 86.0 °F 37.0 °F 18% 29.93 in 10.0 mi WNW 3.5 mph - N/A   Clear
3:53 PM 86.0 °F 39.9 °F 20% 29.93 in 10.0 mi West 3.5 mph - N/A   Clear
4:53 PM 84.9 °F 42.1 °F 22% 29.92 in 10.0 mi WNW 4.6 mph - N/A   Clear
5:53 PM 80.1 °F 43.0 °F 27% 29.93 in 10.0 mi West 3.5 mph - N/A   Clear
6:53 PM 75.0 °F 43.0 °F 32% 29.94 in 10.0 mi West 3.5 mph - N/A   Clear
7:53 PM 72.0 °F 41.0 °F 33% 29.95 in 10.0 mi Calm Calm - N/A   Clear
8:53 PM 69.1 °F 42.1 °F 38% 29.96 in 10.0 mi Calm Calm - N/A   Clear
9:53 PM 64.9 °F 45.0 °F 48% 29.98 in 10.0 mi Calm Calm - N/A   Clear
10:53 PM 62.1 °F 46.0 °F 56% 29.99 in 10.0 mi WSW 5.8 mph - N/A   Clear
11:53 PM 61.0 °F 44.1 °F 54% 30.00 in 10.0 mi West 4.6 mph - N/A   Clear